Location: Unspecified
(0.0000°N, 0.0000°E)
Time: 23:50:35
(UTC+00:00)

S-56A Canister/Altair - Pass Details

Date: 06 October 2020
Orbit: 633 x 2499 km, 38.9° (Epoch: 28 October)

Event Time Altitude Azimuth Distance (km) Brightness Sun altitude
Rises 10:41:53 0° 261° (W) 4,608 11.3 72.6°
Reaches altitude 10° 10:45:10 10° 272° (W) 3,893 11.1 73.4°
Maximum altitude 10:54:03 30° 328° (NNW) 3,201 11.0 75.5°
Drops below altitude 10° 11:05:31 10° 22° (NNE) 5,020 11.8 78.1°
Sets 11:10:35 0° 33° (NNE) 6,138 12.1 79.2°
